2024-169E

Last updated on Tue Oct 08 2024 00:02:04 GMT+0000 (Coordinated Universal Time)

1 61193U 24169E 24281.51192604 .00024272 00000+0 14597-2 0 9991 2 61193 97.5973 6.7764 0013903 220.2258 139.7943 15.10762882 2614
UTC large
Height (km)
Speed (km/s)
/
Latitude / Longitude
Inclination (degrees)
Orbital Period (minutes)
Azimuth
Elevation
Range (km)
Doppler Factor

Next 0 passes for location: London (51.5072 / 0.1276)

Sorry there are no passes over London.